Location: Courtland Meadows
(41.4372°N, 81.9208°W)
Time: 14:17:50
(UTC+00:00)

Daily predictions for brighter satellites

Satellite Brightness Start Highest point End
(mag) Time Altitude Azimuth Time Altitude Azimuth Time Altitude Azimuth
Meteor PRIRODA 4.5 12:01:28 10° N 12:04:35 28° WNW 12:07:43 10° SW
CZ-4B R/B 3.3 12:02:17 10° N 12:05:28 31° WNW 12:08:41 10° SW
AQUARIUS 4.1 12:02:24 10° N 12:06:55 79° WNW 12:11:23 10° SSW
Cosmos 1428 Rocket 4.5 12:00:58 10° SSW 12:07:04 69° W 12:13:12 10° N
Cosmos 1092 Rocket 4.1 12:01:31 10° SSW 12:07:40 59° W 12:13:54 10° N
Meteor 1-19 Rocket 4.2 12:02:35 10° N 12:08:11 86° W 12:13:37 10° S
Cosmos 1538 Rocket 4.1 12:04:44 10° NNW 12:09:52 58° WSW 12:14:56 10° S
SMAP 3.1 12:05:20 10° N 12:09:57 64° WNW 12:14:33 10° SSW
Cosmos 1805 Rocket 3.8 12:05:45 10° SSW 12:09:59 48° W 12:14:14 10° N
H-2A R/B 2.3 12:05:57 10° S 12:10:04 49° W 12:14:20 10° NNW
CZ-4B DEB 4.4 12:04:49 10° NNE 12:10:18 78° ESE 12:15:44 10° S
USA 229 DEB 4.0 22:12:26 10° NNW 22:19:52 81° NE 22:27:44 10° SE
USA 229 4.0 22:12:31 10° NNW 22:19:58 81° NE 22:27:49 10° SE
NOAA 6 4.4 22:19:16 10° SE 22:24:05 43° ENE 22:28:55 10° N
Cosmos 1666 4.2 22:22:44 10° NNE 22:25:03 16° ENE 22:27:22 10° ESE
CZ-4B R/B 4.4 22:21:42 10° ESE 22:25:26 19° ENE 22:29:09 10° NNE
SL-24 R/B - RUBIN 2 3.9 22:27:05 10° NNW 22:31:21 41° NE 22:35:27 10° ESE
Cosmos 540 Rocket 3.5 22:27:41 10° SSW 22:32:47 89° ESE 22:37:55 10° NNE
Cosmos 2360 4.2 22:28:23 10° NNW 22:34:09 81° ENE 22:39:52 10° SSE
USA 234 3.6 22:29:16 10° E 22:35:24 45° NNE 22:41:32 10° NW
Cosmos 858 Rocket 4.5 22:31:50 10° NNW 22:37:07 68° ENE 22:42:19 10° SSE
PSLV R/B 4.5 22:35:58 10° SE 22:39:11 29° ENE 22:42:28 10° N
Meteor 1-20 Rocket 4.5 22:35:20 10° NNW 22:41:12 83° W 22:47:02 10° S
Meteor PRIRODA 4.0 22:38:32 10° S 22:42:08 66° WSW 22:45:45 10° NNW
Cosmos 921 Rocket 4.3 22:42:37 10° SE 22:45:40 20° E 22:48:25 11° NE
NOSS 2-2 (D) 4.5 22:41:18 10° NNW 22:46:41 64° NE 22:54:12 10° SE
Cosmos 1933 3.9 22:45:14 10° SSW 22:49:14 62° W 22:53:14 10° N
Cosmos 1812 3.0 22:46:04 10° SSE 22:49:44 44° E 22:53:24 10° NNE
CZ-4B R/B 3.7 22:49:06 10° S 22:53:02 53° W 22:56:49 10° NNW
CZ-2C R/B 3.2 22:49:56 10° SW 22:53:16 22° SSE 22:56:33 10° ESE
Cosmos 1814 Rocket 4.0 22:50:14 10° S 22:55:24 65° ESE 23:00:33 10° NNE
COSMO-SKYMED 1 3.5 22:52:08 10° NE 22:55:53 28° E 22:59:38 10° SSE
Meteor 1-26 Rocket 4.4 22:50:01 10° S 22:56:00 88° E 23:02:05 10° N
Cosmos 1570 Rocket 4.1 22:52:01 10° S 22:57:08 58° ESE 23:02:16 10° NNE
COSMOS 2455 3.2 22:53:03 10° SW 22:59:02 68° WNW 23:05:04 10° NNE
Cosmos 1633 Rocket 3.5 22:55:31 10° N 22:59:38 39° ENE 23:03:45 10° SSE
X-37B 2.1 22:59:51 10° SSW 23:02:07 21° SSE 23:03:24 16° ESE
Cosmos 1151 Rocket 3.1 22:57:54 10° S 23:02:08 58° E 23:06:26 10° NNE
Cosmos 1092 Rocket 4.3 22:57:12 10° NNW 23:03:31 72° W 23:09:47 10° S
Cosmos 1697 Rocket 3.6 22:58:18 10° NNW 23:03:45 53° WSW 23:09:10 10° S
Cosmos 2322 Rocket 3.5 23:00:19 10° N 23:04:17 19° NE 23:05:58 17° ENE
AQUARIUS 4.2 23:00:58 10° SSE 23:05:27 88° WSW 23:09:59 10° NNW
Cosmos 1980 Rocket 2.2 23:03:34 10° NNW 23:09:16 86° ENE 23:14:53 10° SSE
SMAP 3.6 23:08:17 10° S 23:12:53 63° WSW 23:17:30 10° NNW
CORIOLIS 4.4 23:10:10 10° S 23:15:32 74° WSW 23:21:00 10° NNW
Landsat 5 4.2 23:14:49 22° NE 23:16:28 30° E 23:19:56 10° SSE
Cosmos 2369 4.2 23:11:00 10° NNW 23:16:42 65° WSW 23:22:19 10° S
Cosmos 1818 3.9 23:12:18 10° NNW 23:17:33 44° NE 23:22:43 10° ESE
ISS -3.8 23:14:48 10° NW 23:18:12 85° NE 23:20:29 19° ESE
CZ-4C R/B 3.0 23:12:50 10° NNW 23:20:14 73° NE 23:28:46 10° SE
Cosmos 2142 Rocket 4.5 23:17:06 10° S 23:23:15 89° W 23:29:31 10° N
SL-16 R/B 2.8 23:18:53 10° N 23:23:58 33° ENE 23:27:08 19° ESE
Cosmos 2082 Rocket 2.9 23:18:29 10° SW 23:24:01 53° WNW 23:29:34 10° NNE
Meteor 1-5 Rocket 4.2 23:18:41 10° N 23:24:42 79° E 23:30:33 10° SSE
Okean O Rocket 1.9 23:21:16 10° SE 23:25:29 45° ENE 23:29:46 10° N
Cosmos 2279 Rocket 4.0 23:19:49 10° S 23:26:01 89° W 23:32:16 10° N
Cosmos 1328 Rocket 3.5 23:22:14 10° S 23:26:40 77° E 23:31:07 10° N
USA 306 4.4 23:23:59 10° NNW 23:27:10 20° NNE 23:27:37 20° NNE
Cosmos 1666 Rocket 3.6 23:23:08 10° N 23:27:35 82° W 23:31:58 10° S
Cosmos 1470 Rocket 3.7 23:26:41 10° N 23:31:03 50° E 23:35:24 10° SSE
ARGOS 3.2 23:26:05 10° SSE 23:31:22 57° ENE 23:36:40 10° N
Cosmos 44 Rocket 3.3 23:26:51 10° NNW 23:31:39 52° NE 23:34:46 20° ESE
Cosmos 2266 Rocket 4.2 23:27:01 10° N 23:33:13 50° ENE 23:39:25 10° SSE
Cosmos 2208 Rocket 4.1 23:28:43 10° SSW 23:34:07 83° WNW 23:39:20 11° NNE
Aureole 3 Rocket 3.9 23:32:58 10° SSE 23:36:47 34° E 23:37:00 33° E
CZ-2D R/B 3.9 23:33:25 10° S 23:37:10 56° W 23:40:57 10° NNW
MOS 1-B 4.5 23:32:31 10° S 23:38:17 78° WSW 23:44:06 10° NNW
Cosmos 2333 Rocket 4.3 23:36:54 10° NNE 23:37:11 11° NNE 23:37:11 11° NNE
Cosmos 1867 4.1 23:34:34 10° S 23:39:34 39° ESE 23:40:49 34° E
Cosmos 2278 3.9 23:34:10 10° NNW 23:39:53 76° WSW 23:45:32 10° SSE
Cosmos 2150 Rocket 4.1 23:35:38 10° N 23:40:42 51° ENE 23:45:47 10° SE
Meteor 2-15 4.3 23:35:23 10° S 23:41:28 76° E 23:47:34 10° NNE
H-2A R/B 2.3 23:36:24 10° S 23:41:33 69° WSW 23:46:35 10° NNW
ATLAS CENTAUR R/B 4.1 23:35:41 10° W 23:42:53 27° NW 23:45:45 15° N
SKYMED 2 3.5 23:40:10 13° N 23:44:05 85° W 23:48:25 10° SSW
USA 267 4.1 23:41:27 17° NNE 23:45:58 41° NNW 23:51:59 10° W
USA 307 4.4 23:43:39 10° NNW 23:46:33 22° N 23:46:33 22° N
USA 32 4.1 23:44:01 10° SSE 23:49:02 51° E 23:51:15 31° NNE
Cosmos 1125 Rocket 3.5 23:46:58 10° NNW 23:52:10 59° ENE 23:56:49 13° SSE
